• In Netherlands
  • List of Countries
  • For 7 days
  • Water Temperature
  • Satellite Maps
  • Weather Map
  • Weather Widgets
  • user-avatar
    Login

    Hourly Weather Stepnoy Mayak

    Today, 22 October, Monday

    Time Temperature Precipitation Wind Pressure Humidity
    00:00 +17°C° 0.4 mm 3 mps 756 mmHg 76%
    01:00 +17°C° 0 mm 3 mps 756 mmHg 74%
    02:00 +16°C° 0 mm 3 mps 756 mmHg 72%
    03:00 +14°C° 0 mm 3 mps 756 mmHg 68%
    04:00 +14°C° 0 mm 3 mps 756 mmHg 67%
    05:00 +14°C° 0 mm 3 mps 756 mmHg 66%
    06:00 +14°C° 0 mm 4 mps 756 mmHg 65%
    07:00 +14°C° 0 mm 4 mps 756 mmHg 61%
    08:00 +15°C° 0 mm 4 mps 757 mmHg 57%
    09:00 +15°C° 0 mm 5 mps 757 mmHg 52%
    10:00 +16°C° 0 mm 5 mps 757 mmHg 48%
    11:00 +17°C° 0 mm 5 mps 757 mmHg 43%
    12:00 +20°C° 0 mm 5 mps 756 mmHg 39%
    13:00 +20°C° 0 mm 5 mps 756 mmHg 40%
    14:00 +20°C° 0 mm 4 mps 756 mmHg 40%
    15:00 +20°C° 0 mm 4 mps 756 mmHg 40%
    16:00 +19°C° 0 mm 4 mps 756 mmHg 44%
    17:00 +18°C° 0 mm 3 mps 756 mmHg 47%
    18:00 +17°C° 0 mm 3 mps 756 mmHg 51%
    19:00 +17°C° 0.1 mm 3 mps 756 mmHg 54%
    20:00 +17°C° 0.1 mm 3 mps 756 mmHg 57%
    21:00 +16°C° 0.1 mm 3 mps 756 mmHg 60%
    22:00 +16°C° 0.2 mm 3 mps 756 mmHg 64%
    23:00 +16°C° 0.2 mm 3 mps 756 mmHg 68%

    Tomorrow, 23 October, Tuesday

    Time Temperature Precipitation Wind Pressure Humidity
    00:00 +16°C° 0.2 mm 3 mps 755 mmHg 72%
    01:00 +14°C° 0.1 mm 3 mps 755 mmHg 75%
    02:00 +14°C° 0.1 mm 3 mps 755 mmHg 79%
    03:00 +14°C° 0.1 mm 3 mps 755 mmHg 82%
    04:00 +14°C° 0.1 mm 4 mps 755 mmHg 84%
    05:00 +14°C° 0.1 mm 4 mps 754 mmHg 86%
    06:00 +14°C° 0.1 mm 5 mps 754 mmHg 88%
    07:00 +14°C° 0 mm 5 mps 754 mmHg 85%
    08:00 +14°C° 0 mm 5 mps 754 mmHg 82%
    09:00 +14°C° 0 mm 5 mps 754 mmHg 79%
    10:00 +15°C° 0 mm 6 mps 754 mmHg 72%
    11:00 +16°C° 0 mm 6 mps 754 mmHg 65%
    12:00 +17°C° 0 mm 7 mps 754 mmHg 58%
    13:00 +17°C° 0 mm 7 mps 754 mmHg 59%
    14:00 +16°C° 0 mm 7 mps 753 mmHg 59%
    15:00 +16°C° 0 mm 7 mps 753 mmHg 59%
    16:00 +15°C° 0 mm 5 mps 753 mmHg 63%
    17:00 +14°C° 0 mm 4 mps 753 mmHg 67%
    18:00 +13°C° 0 mm 3 mps 753 mmHg 70%
    19:00 +12°C° 0 mm 3 mps 753 mmHg 73%
    20:00 +12°C° 0 mm 3 mps 753 mmHg 75%
    21:00 +11°C° 0 mm 3 mps 753 mmHg 77%
    22:00 +11°C° 0 mm 3 mps 752 mmHg 78%
    23:00 +10°C° 0 mm 3 mps 752 mmHg 78%

    Day after tomorrow, 24 October, Wednesday

    Time Temperature Precipitation Wind Pressure Humidity
    00:00 +10°C° 0 mm 3 mps 752 mmHg 78%
    01:00 +10°C° 0 mm 3 mps 751 mmHg 79%
    02:00 +9°C° 0 mm 3 mps 751 mmHg 80%
    03:00 +9°C° 0 mm 3 mps 751 mmHg 81%
    04:00 +9°C° 0 mm 3 mps 750 mmHg 82%
    05:00 +9°C° 0 mm 3 mps 750 mmHg 84%
    06:00 +8°C° 0 mm 3 mps 749 mmHg 85%
    07:00 +10°C° 0 mm 4 mps 749 mmHg 78%
    08:00 +11°C° 0 mm 4 mps 749 mmHg 71%
    09:00 +13°C° 0 mm 5 mps 748 mmHg 64%
    10:00 +14°C° 0 mm 6 mps 748 mmHg 61%
    11:00 +16°C° 0 mm 6 mps 747 mmHg 59%
    12:00 +17°C° 0 mm 7 mps 746 mmHg 56%
    13:00 +17°C° 0.1 mm 7 mps 745 mmHg 58%
    14:00 +17°C° 0.1 mm 7 mps 745 mmHg 59%
    15:00 +17°C° 0.1 mm 7 mps 744 mmHg 61%
    16:00 +16°C° 1.1 mm 7 mps 743 mmHg 68%
    17:00 +15°C° 1.1 mm 7 mps 743 mmHg 75%
    18:00 +14°C° 1.1 mm 7 mps 743 mmHg 82%
    19:00 +14°C° 2 mm 6 mps 742 mmHg 83%
    20:00 +14°C° 2 mm 6 mps 742 mmHg 84%
    21:00 +14°C° 2 mm 6 mps 742 mmHg 84%
    22:00 +14°C° 0.4 mm 6 mps 741 mmHg 85%
    23:00 +14°C° 0.4 mm 6 mps 740 mmHg 86%

    25 October, Thursday

    Time Temperature Precipitation Wind Pressure Humidity
    00:00 +14°C° 0.4 mm 6 mps 740 mmHg 86%
    01:00 +14°C° 0.1 mm 6 mps 740 mmHg 85%
    02:00 +14°C° 0.1 mm 6 mps 739 mmHg 84%
    03:00 +14°C° 0.1 mm 7 mps 739 mmHg 84%
    04:00 +14°C° 0.3 mm 7 mps 739 mmHg 83%
    05:00 +12°C° 0.3 mm 7 mps 739 mmHg 83%
    06:00 +12°C° 0.3 mm 7 mps 739 mmHg 83%
    07:00 +11°C° 0.3 mm 6 mps 739 mmHg 79%
    08:00 +10°C° 0.3 mm 6 mps 740 mmHg 75%
    09:00 +10°C° 0.3 mm 6 mps 740 mmHg 71%
    10:00 +10°C° 0.2 mm 6 mps 741 mmHg 65%
    11:00 +10°C° 0.2 mm 6 mps 741 mmHg 60%
    12:00 +10°C° 0.2 mm 7 mps 742 mmHg 55%
    13:00 +10°C° 0 mm 7 mps 742 mmHg 54%
    14:00 +10°C° 0 mm 7 mps 742 mmHg 53%
    15:00 +10°C° 0 mm 7 mps 742 mmHg 51%
    16:00 +9°C° 0 mm 6 mps 742 mmHg 54%
    17:00 +9°C° 0 mm 6 mps 743 mmHg 56%
    18:00 +8°C° 0 mm 5 mps 743 mmHg 58%
    19:00 +8°C° 0 mm 5 mps 743 mmHg 60%
    20:00 +8°C° 0 mm 5 mps 743 mmHg 61%
    21:00 +8°C° 0 mm 5 mps 744 mmHg 63%
    22:00 +8°C° 0 mm 5 mps 744 mmHg 65%
    23:00 +7°C° 0 mm 5 mps 744 mmHg 66%

    26 October, Friday

    Time Temperature Precipitation Wind Pressure Humidity
    00:00 +7°C° 0 mm 5 mps 744 mmHg 68%
    01:00 +7°C° 0 mm 5 mps 744 mmHg 70%
    02:00 +6°C° 0 mm 5 mps 744 mmHg 72%
    03:00 +6°C° 0 mm 5 mps 744 mmHg 74%
    04:00 +6°C° 0 mm 5 mps 745 mmHg 75%
    05:00 +6°C° 0 mm 4 mps 745 mmHg 75%
    06:00 +5°C° 0 mm 4 mps 745 mmHg 76%
    07:00 +6°C° 0 mm 5 mps 746 mmHg 73%
    08:00 +7°C° 0 mm 5 mps 746 mmHg 70%
    09:00 +8°C° 0 mm 6 mps 746 mmHg 68%
    10:00 +9°C° 0 mm 5 mps 746 mmHg 62%
    11:00 +10°C° 0 mm 5 mps 746 mmHg 56%
    12:00 +12°C° 0 mm 5 mps 746 mmHg 50%
    13:00 +12°C° 0 mm 4 mps 746 mmHg 50%
    14:00 +11°C° 0 mm 4 mps 746 mmHg 50%
    15:00 +11°C° 0 mm 3 mps 746 mmHg 51%
    16:00 +10°C° 0.7 mm 3 mps 747 mmHg 58%
    17:00 +9°C° 0.7 mm 3 mps 748 mmHg 65%
    18:00 +8°C° 0.7 mm 3 mps 748 mmHg 72%
    19:00 +8°C° 0.2 mm 3 mps 749 mmHg 71%
    20:00 +7°C° 0.2 mm 4 mps 750 mmHg 69%
    21:00 +6°C° 0.2 mm 5 mps 751 mmHg 68%
    22:00 +6°C° 0 mm 5 mps 752 mmHg 65%
    23:00 +5°C° 0 mm 5 mps 753 mmHg 62%

    27 October, Saturday

    Time Temperature Precipitation Wind Pressure Humidity
    00:00 +5°C° 0 mm 5 mps 754 mmHg 59%
    01:00 +3°C° 0 mm 5 mps 755 mmHg 60%
    02:00 +3°C° 0 mm 5 mps 755 mmHg 61%
    03:00 +3°C° 0 mm 5 mps 756 mmHg 61%
    04:00 +2°C° 0 mm 5 mps 757 mmHg 64%
    05:00 +3°C° 0 mm 4 mps 758 mmHg 66%
    06:00 +3°C° 0 mm 4 mps 758 mmHg 68%
    07:00 +4°C° 0 mm 4 mps 759 mmHg 66%
    08:00 +5°C° 0 mm 5 mps 760 mmHg 63%
    09:00 +6°C° 0 mm 5 mps 760 mmHg 61%
    10:00 +7°C° 0 mm 5 mps 761 mmHg 55%
    11:00 +8°C° 0 mm 5 mps 761 mmHg 50%
    12:00 +10°C° 0 mm 6 mps 761 mmHg 44%
    13:00 +10°C° 0 mm 5 mps 761 mmHg 44%
    14:00 +12°C° 0 mm 5 mps 761 mmHg 43%
    15:00 +12°C° 0 mm 5 mps 761 mmHg 43%
    16:00 +11°C° 0 mm 4 mps 761 mmHg 48%
    17:00 +10°C° 0 mm 3 mps 762 mmHg 54%
    18:00 +9°C° 0 mm 2 mps 762 mmHg 59%
    19:00 +9°C° 0 mm 3 mps 762 mmHg 62%
    20:00 +8°C° 0 mm 3 mps 762 mmHg 65%
    21:00 +8°C° 0 mm 3 mps 762 mmHg 68%
    22:00 +8°C° 0 mm 3 mps 763 mmHg 69%
    23:00 +8°C° 0 mm 3 mps 763 mmHg 70%

    28 October, Sunday

    Time Temperature Precipitation Wind Pressure Humidity
    00:00 +8°C° 0 mm 3 mps 763 mmHg 71%
    01:00 +7°C° 0 mm 3 mps 763 mmHg 71%
    02:00 +6°C° 0 mm 4 mps 763 mmHg 72%
    03:00 +6°C° 0 mm 4 mps 763 mmHg 73%
    04:00 +6°C° 0 mm 4 mps 763 mmHg 72%
    05:00 +6°C° 0 mm 4 mps 763 mmHg 72%
    06:00 +6°C° 0 mm 4 mps 764 mmHg 71%
    07:00 +8°C° 0 mm 4 mps 764 mmHg 66%
    08:00 +9°C° 0 mm 5 mps 764 mmHg 62%
    09:00 +10°C° 0 mm 5 mps 764 mmHg 57%
    10:00 +13°C° 0 mm 5 mps 764 mmHg 52%
    11:00 +14°C° 0 mm 5 mps 764 mmHg 48%
    12:00 +16°C° 0 mm 5 mps 764 mmHg 44%
    13:00 +16°C° 0 mm 5 mps 764 mmHg 42%
    14:00 +16°C° 0 mm 5 mps 763 mmHg 40%
    15:00 +17°C° 0 mm 5 mps 763 mmHg 39%
    16:00 +15°C° 0 mm 4 mps 763 mmHg 43%
    17:00 +14°C° 0 mm 4 mps 763 mmHg 46%
    18:00 +13°C° 0 mm 4 mps 763 mmHg 50%
    19:00 +12°C° 0 mm 4 mps 763 mmHg 51%
    20:00 +12°C° 0 mm 4 mps 763 mmHg 52%
    21:00 +11°C° 0 mm 4 mps 763 mmHg 53%
    22:00 +11°C° 0 mm 4 mps 763 mmHg 55%
    23:00 +10°C° 0 mm 4 mps 763 mmHg 57%
    Show more